• Em Portugal
  • Lista de países
  • Para 7 dias
  • Temperatura da água
  • Mapas de satélite
  • Mapa do tempo
  • Widgets de tempo
  • user-avatar
    Iniciar Sessão

    Previsão horária em Konya

    Hoje, 19 Janeiro, Sexta-feira

    Tempo Temperatura Precipitação Vento Pressão Humidade
    00:00 -7°C° 0,1 mm 10 m/s 662 mmHg 77%
    01:00 -6°C° 0,1 mm 9 m/s 663 mmHg 77%
    02:00 -7°C° 0 mm 10 m/s 663 mmHg 66%
    03:00 -6°C° 0 mm 9 m/s 663 mmHg 66%
    04:00 -6°C° 0 mm 8 m/s 664 mmHg 66%
    05:00 -7°C° 0 mm 8 m/s 664 mmHg 66%
    06:00 -6°C° 0 mm 7 m/s 665 mmHg 64%
    07:00 -6°C° 0 mm 7 m/s 666 mmHg 63%
    08:00 -5°C° 0 mm 6 m/s 666 mmHg 60%
    09:00 -4°C° 0 mm 6 m/s 667 mmHg 57%
    10:00 -3°C° 0 mm 6 m/s 668 mmHg 54%
    11:00 -2°C° 0 mm 6 m/s 669 mmHg 51%
    12:00 -1°C° 0 mm 6 m/s 669 mmHg 49%
    13:00 0°C° 0 mm 5 m/s 669 mmHg 47%
    14:00 +1°C° 0 mm 5 m/s 669 mmHg 45%
    15:00 0°C° 0 mm 4 m/s 670 mmHg 48%
    16:00 0°C° 0 mm 3 m/s 670 mmHg 52%
    17:00 -1°C° 0 mm 2 m/s 671 mmHg 55%
    18:00 +1°C° 0 mm 1 m/s 671 mmHg 57%
    19:00 +1°C° 0 mm 1 m/s 671 mmHg 58%
    20:00 0°C° 0 mm 1 m/s 672 mmHg 59%
    21:00 0°C° 0 mm 1 m/s 672 mmHg 59%
    22:00 0°C° 0 mm 1 m/s 672 mmHg 58%
    23:00 0°C° 0 mm 1 m/s 672 mmHg 58%

    Amanhã, 20 Janeiro, Sábado

    Tempo Temperatura Precipitação Vento Pressão Humidade
    00:00 -2°C° 0 mm 2 m/s 672 mmHg 58%
    01:00 -2°C° 0 mm 2 m/s 672 mmHg 59%
    02:00 -2°C° 0 mm 2 m/s 672 mmHg 60%
    03:00 -2°C° 0 mm 2 m/s 672 mmHg 60%
    04:00 -2°C° 0 mm 2 m/s 672 mmHg 60%
    05:00 -2°C° 0 mm 2 m/s 672 mmHg 59%
    06:00 -1°C° 0 mm 2 m/s 672 mmHg 57%
    07:00 -1°C° 0 mm 2 m/s 672 mmHg 55%
    08:00 +1°C° 0 mm 2 m/s 672 mmHg 52%
    09:00 +3°C° 0 mm 2 m/s 672 mmHg 45%
    10:00 +4°C° 0 mm 3 m/s 673 mmHg 38%
    11:00 +7°C° 0 mm 3 m/s 673 mmHg 30%
    12:00 +8°C° 0 mm 3 m/s 673 mmHg 29%
    13:00 +9°C° 0 mm 3 m/s 673 mmHg 28%
    14:00 +10°C° 0 mm 3 m/s 672 mmHg 27%
    15:00 +9°C° 0 mm 3 m/s 672 mmHg 34%
    16:00 +7°C° 0 mm 3 m/s 672 mmHg 41%
    17:00 +4°C° 0 mm 3 m/s 671 mmHg 47%
    18:00 +3°C° 0 mm 3 m/s 671 mmHg 52%
    19:00 +3°C° 0 mm 3 m/s 672 mmHg 56%
    20:00 +2°C° 0 mm 3 m/s 672 mmHg 60%
    21:00 +2°C° 0 mm 3 m/s 672 mmHg 62%
    22:00 +1°C° 0 mm 3 m/s 672 mmHg 64%
    23:00 +1°C° 0 mm 3 m/s 672 mmHg 66%

    Depois de amanhã, 21 Janeiro, Domingo

    Tempo Temperatura Precipitação Vento Pressão Humidade
    00:00 +1°C° 0 mm 3 m/s 672 mmHg 69%
    01:00 +1°C° 0 mm 3 m/s 672 mmHg 71%
    02:00 +1°C° 0 mm 3 m/s 672 mmHg 74%
    03:00 +1°C° 0 mm 3 m/s 672 mmHg 76%
    04:00 +2°C° 0 mm 2 m/s 672 mmHg 79%
    05:00 +2°C° 0 mm 2 m/s 671 mmHg 81%
    06:00 +2°C° 0 mm 2 m/s 672 mmHg 81%
    07:00 +2°C° 0 mm 2 m/s 672 mmHg 81%
    08:00 +3°C° 0 mm 2 m/s 672 mmHg 81%
    09:00 +3°C° 0 mm 3 m/s 672 mmHg 74%
    10:00 +5°C° 0 mm 3 m/s 672 mmHg 68%
    11:00 +7°C° 0 mm 4 m/s 672 mmHg 61%
    12:00 +7°C° 0 mm 4 m/s 671 mmHg 58%
    13:00 +8°C° 0 mm 4 m/s 671 mmHg 56%
    14:00 +10°C° 0 mm 4 m/s 670 mmHg 53%
    15:00 +8°C° 0 mm 4 m/s 670 mmHg 58%
    16:00 +7°C° 0 mm 4 m/s 669 mmHg 63%
    17:00 +6°C° 0 mm 4 m/s 669 mmHg 69%
    18:00 +5°C° 0 mm 4 m/s 668 mmHg 72%
    19:00 +4°C° 0 mm 4 m/s 668 mmHg 75%
    20:00 +4°C° 0 mm 4 m/s 668 mmHg 79%
    21:00 +3°C° 0 mm 4 m/s 667 mmHg 79%
    22:00 +3°C° 0 mm 4 m/s 667 mmHg 80%
    23:00 +3°C° 0 mm 4 m/s 666 mmHg 80%

    22 Janeiro, Segunda-feira

    Tempo Temperatura Precipitação Vento Pressão Humidade
    00:00 +3°C° 0 mm 4 m/s 666 mmHg 79%
    01:00 +3°C° 0 mm 4 m/s 665 mmHg 77%
    02:00 +3°C° 0 mm 4 m/s 664 mmHg 76%
    03:00 +2°C° 0 mm 5 m/s 664 mmHg 76%
    04:00 +2°C° 0 mm 5 m/s 663 mmHg 76%
    05:00 +2°C° 0 mm 5 m/s 663 mmHg 76%
    06:00 +2°C° 0,1 mm 5 m/s 663 mmHg 76%
    07:00 +2°C° 0,1 mm 5 m/s 663 mmHg 76%
    08:00 +2°C° 0,1 mm 5 m/s 663 mmHg 75%
    09:00 +4°C° 0 mm 6 m/s 663 mmHg 69%
    10:00 +5°C° 0 mm 7 m/s 663 mmHg 63%
    11:00 +6°C° 0 mm 8 m/s 663 mmHg 57%
    12:00 +8°C° 0,1 mm 7 m/s 662 mmHg 56%
    13:00 +8°C° 0,1 mm 7 m/s 662 mmHg 55%
    14:00 +9°C° 0,1 mm 6 m/s 661 mmHg 54%
    15:00 +8°C° 0,2 mm 5 m/s 661 mmHg 59%
    16:00 +7°C° 0,2 mm 4 m/s 661 mmHg 64%
    17:00 +6°C° 0,2 mm 4 m/s 661 mmHg 69%
    18:00 +6°C° 0,2 mm 4 m/s 661 mmHg 72%
    19:00 +5°C° 0,2 mm 4 m/s 661 mmHg 76%
    20:00 +5°C° 0,2 mm 4 m/s 660 mmHg 79%
    21:00 +4°C° 0,4 mm 4 m/s 660 mmHg 81%
    22:00 +4°C° 0,4 mm 3 m/s 660 mmHg 83%
    23:00 +3°C° 0,4 mm 3 m/s 660 mmHg 85%

    23 Janeiro, Terça-feira

    Tempo Temperatura Precipitação Vento Pressão Humidade
    00:00 +3°C° 1,5 mm 4 m/s 660 mmHg 87%
    01:00 +1°C° 1,5 mm 5 m/s 659 mmHg 88%
    02:00 -1°C° 1,5 mm 6 m/s 659 mmHg 90%
    03:00 -2°C° 1,3 mm 7 m/s 660 mmHg 90%
    04:00 -2°C° 1,3 mm 8 m/s 660 mmHg 90%
    05:00 -4°C° 1,3 mm 9 m/s 660 mmHg 90%
    06:00 -4°C° 0,7 mm 9 m/s 661 mmHg 90%
    07:00 -4°C° 0,7 mm 9 m/s 662 mmHg 90%
    08:00 -5°C° 0,7 mm 8 m/s 663 mmHg 90%
    09:00 -4°C° 0,5 mm 9 m/s 663 mmHg 90%
    10:00 -4°C° 0,5 mm 9 m/s 664 mmHg 89%
    11:00 -4°C° 0,5 mm 9 m/s 665 mmHg 89%
    12:00 -4°C° 0,2 mm 8 m/s 665 mmHg 88%
    13:00 -4°C° 0,2 mm 8 m/s 666 mmHg 87%
    14:00 -2°C° 0,2 mm 7 m/s 666 mmHg 87%
    15:00 -3°C° 0,2 mm 7 m/s 667 mmHg 87%
    16:00 -3°C° 0,2 mm 7 m/s 667 mmHg 87%
    17:00 -3°C° 0,2 mm 6 m/s 668 mmHg 88%
    18:00 -4°C° 0,1 mm 6 m/s 669 mmHg 89%
    19:00 -4°C° 0,1 mm 6 m/s 669 mmHg 89%
    20:00 -5°C° 0,1 mm 5 m/s 670 mmHg 90%
    21:00 -5°C° 0,1 mm 5 m/s 670 mmHg 90%
    22:00 -5°C° 0,1 mm 5 m/s 671 mmHg 90%
    23:00 -5°C° 0,1 mm 4 m/s 671 mmHg 91%

    24 Janeiro, Quarta-feira

    Tempo Temperatura Precipitação Vento Pressão Humidade
    00:00 -5°C° 0,1 mm 4 m/s 671 mmHg 91%
    01:00 -5°C° 0,1 mm 4 m/s 671 mmHg 91%
    02:00 -7°C° 0,1 mm 4 m/s 672 mmHg 92%
    03:00 -7°C° 0,1 mm 4 m/s 672 mmHg 92%
    04:00 -7°C° 0,1 mm 4 m/s 672 mmHg 92%
    05:00 -7°C° 0,1 mm 4 m/s 672 mmHg 92%
    06:00 -7°C° 0,1 mm 4 m/s 672 mmHg 91%
    07:00 -7°C° 0,1 mm 4 m/s 673 mmHg 90%
    08:00 -8°C° 0,1 mm 4 m/s 673 mmHg 89%
    09:00 -7°C° 0,1 mm 4 m/s 673 mmHg 87%
    10:00 -5°C° 0,1 mm 4 m/s 673 mmHg 85%
    11:00 -6°C° 0,1 mm 5 m/s 674 mmHg 83%
    12:00 -6°C° 0,1 mm 5 m/s 674 mmHg 82%
    13:00 -5°C° 0,1 mm 5 m/s 673 mmHg 81%
    14:00 -5°C° 0,1 mm 5 m/s 673 mmHg 81%
    15:00 -4°C° 0,1 mm 4 m/s 673 mmHg 82%
    16:00 -5°C° 0,1 mm 4 m/s 674 mmHg 84%
    17:00 -5°C° 0,1 mm 4 m/s 674 mmHg 86%
    18:00 -5°C° 0,1 mm 3 m/s 674 mmHg 86%
    19:00 -6°C° 0,1 mm 3 m/s 674 mmHg 86%
    20:00 -6°C° 0,1 mm 3 m/s 675 mmHg 87%
    21:00 -7°C° 0,1 mm 3 m/s 675 mmHg 87%
    22:00 -7°C° 0,1 mm 3 m/s 675 mmHg 87%
    23:00 -8°C° 0,1 mm 3 m/s 675 mmHg 87%
    Mostrar mais